Skip Page Navigation
NASA JPL Caltech
NASA Logo - Jet Propulsion Laboratory + View the NASA Portal
+ Center for Near-Earth Object Studies
JPL Home Earth Solar System Stars & Galaxies Technology
JPL Solar System Dynamics
BODIES ORBITS EPHEMERIDES TOOLS PHYSICAL DATA DISCOVERY FAQ SITE MAP
IMPORTANT: The SSD Announcement email list is now available. Major changes are coming in the near future, including possible hostname and/or URL changes. To be notified of such changes, subscribe to this email list.

Please visit this page for more details.


JPL Small-Body Database Browser
Search: [ help ]  
52457 Enquist (1995 AE4)
Classification: Main-belt Asteroid          SPK-ID: 2052457
Ephemeris | Orbit Diagram | Orbital Elements | Mission Design | Physical Parameters | Discovery Circumstances | Close-Approach Data ]

[ show orbit diagram ]
Orbital Elements at Epoch 2459000.5 (2020-May-31.0) TDB
Reference: JPL 30 (heliocentric ecliptic J2000)
 Element Value Uncertainty (1-sigma)   Units 
e .2287032433296768 3.6186e-08  
a 2.570520196155549 1.0953e-08 au
q 1.982633890250338 9.6978e-08 au
i 5.720970517223618 3.4994e-06 deg
node 92.38597129548516 4.5046e-05 deg
peri 298.2605047682594 4.6348e-05 deg
M 106.1299578828786 1.2886e-05 deg
tp 2458556.722326975805
(2019-Mar-14.22232698)
5.1894e-05 TDB
period 1505.323901711295
4.12
9.6212e-06
2.634e-08
d
yr
n .2391511883859293 1.5285e-09 deg/d
Q 3.158406502060759 1.3458e-08 au
  Orbit Determination Parameters
   # obs. used (total)      2094  
   data-arc span      18315 days (50.14 yr)  
   first obs. used      1969-11-15  
   last obs. used      2020-01-07  
   planetary ephem.      DE431  
   SB-pert. ephem.      SB431-N16  
   condition code      0  
   norm. resid. RMS      .47429  
   source      ORB  
   producer      Otto Matic  
   solution date      2020-Jan-29 08:18:37  

Additional Information
 Earth MOID = .996139 au 
 Jupiter MOID = 2.29798 au 
 T_jup = 3.386 
[ show covariance matrix ]

Ephemeris | Orbit Diagram | Orbital Elements | Mission Design | Physical Parameters | Discovery Circumstances | Close-Approach Data ]

Physical Parameter Table
Parameter Symbol Value Units Sigma Reference Notes
absolute magnitude H 14.5   n/a MPO449339  
diameter diameter 7.983 km 0.050 urn:nasa:pds:neowise_diameters_albedos::2.0[mainbelt] (http://adsabs.harvard.edu/abs/2011ApJ...741...68M)  
geometric albedo albedo 0.045   0.006 urn:nasa:pds:neowise_diameters_albedos::2.0[mainbelt] (http://adsabs.harvard.edu/abs/2011ApJ...741...68M)  

52457 Enquist           Discovered 1995 Jan. 2 by E. W. Elst at Caussols.
Anna Enquist (b. 1945) is a Dutch author and poet, who studied psycho-analysis at Leiden and piano at the conservatory of Den Haag. Her first novel The Masterpiece (1994), based on Mozart's Don Giovanni, established her fame as a novelist. Music and psycho-analysis, as well as family tragedy, are the major themes of her work.
NOTE: some special characters may not display properly (any characters within {} are an attempt to place the proper accent above a character)
Reference: MPC batch dated 2014-09-09Last Updated: 2014-11-10

[ show close-approach data ]
Alternate Designations
 1995 AE4 = 1969 VJ2 
Ephemeris | Orbit Diagram | Orbital Elements | Mission Design | Physical Parameters | Discovery Circumstances | Close-Approach Data ]
ABOUT SSD CREDITS/AWARDS PRIVACY/COPYRIGHT GLOSSARY LINKS
FirstGov 2020-Feb-19 16:32 UT
(server date/time)  
NASA Home Page
Site Manager:   Ryan S. Park
Webmaster  Alan B. Chamberlin